Location: ??????
(41.3794°N, 22.5014°E)
Time: 21:43:26
(UTC+00:00)

CENTAUR R/B - Pass Details

Date: 30 November 2020
Orbit: 750 x 1438 km, 63.4° (Epoch: 11 January)

Event Time Altitude Azimuth Distance (km) Brightness Sun altitude
Rises 18:48:44 0° 244° (WSW) 3,420 6.0 -42.0°
Reaches altitude 10° 18:51:16 10° 253° (WSW) 2,568 5.2 -42.5°
Enters shadow 18:53:41 23° 271° (W) 1,886 4.4 -42.9°
